TimeCST,TemperatureF,Dew PointF,Humidity,Sea Level PressureIn,VisibilityMPH,Wind Direction,Wind SpeedMPH,Gust SpeedMPH,PrecipitationIn,Events,Conditions,WindDirDegrees,DateUTC
12:53 AM,37.0,18.0,46,30.29,10.0,NNW,10.4,-,N/A,,Clear,340,2013-01-16 06:53:00
2:53 AM,32.0,19.0,59,30.30,10.0,Calm,Calm,-,N/A,,Clear,0,2013-01-16 08:53:00
3:53 AM,34.0,19.0,54,30.32,10.0,WNW,3.5,-,N/A,,Clear,290,2013-01-16 09:53:00
4:53 AM,30.0,21.0,69,30.32,10.0,West,3.5,-,N/A,,Clear,260,2013-01-16 10:53:00
5:53 AM,28.9,21.0,72,30.33,10.0,West,4.6,-,N/A,,Clear,260,2013-01-16 11:53:00
6:53 AM,28.0,21.0,75,30.35,10.0,West,4.6,-,N/A,,Clear,260,2013-01-16 12:53:00
7:53 AM,28.0,21.0,75,30.37,10.0,West,4.6,-,N/A,,Clear,260,2013-01-16 13:53:00
8:53 AM,35.1,23.0,61,30.39,10.0,Variable,3.5,-,N/A,,Clear,0,2013-01-16 14:53:00
9:53 AM,42.1,19.9,41,30.39,10.0,WNW,8.1,-,N/A,,Clear,290,2013-01-16 15:53:00
10:53 AM,46.9,19.9,34,30.36,10.0,NW,6.9,-,N/A,,Clear,310,2013-01-16 16:53:00
11:53 AM,51.1,19.9,29,30.31,10.0,West,11.5,-,N/A,,Clear,280,2013-01-16 17:53:00
12:53 PM,52.0,21.0,30,30.27,10.0,West,11.5,-,N/A,,Clear,260,2013-01-16 18:53:00
1:53 PM,55.0,14.0,20,30.24,10.0,WNW,11.5,25.3,N/A,,Clear,290,2013-01-16 19:53:00
2:53 PM,55.0,12.9,19,30.22,10.0,NW,12.7,20.7,N/A,,Clear,310,2013-01-16 20:53:00
3:53 PM,55.0,12.9,19,30.21,10.0,WNW,13.8,25.3,N/A,,Clear,300,2013-01-16 21:53:00
4:53 PM,54.0,15.1,22,30.23,10.0,NNW,11.5,-,N/A,,Clear,330,2013-01-16 22:53:00
5:53 PM,52.0,16.0,24,30.25,10.0,NW,5.8,-,N/A,,Clear,320,2013-01-16 23:53:00
6:53 PM,44.1,21.9,42,30.28,10.0,Calm,Calm,-,N/A,,Clear,0,2013-01-17 00:53:00
7:53 PM,41.0,21.0,45,30.30,10.0,Calm,Calm,-,N/A,,Clear,0,2013-01-17 01:53:00
8:53 PM,37.0,23.0,57,30.30,10.0,Calm,Calm,-,N/A,,Clear,0,2013-01-17 02:53:00
9:53 PM,36.0,26.1,67,30.31,10.0,Calm,Calm,-,N/A,,Clear,0,2013-01-17 03:53:00
10:53 PM,33.1,27.0,78,30.31,10.0,West,3.5,-,N/A,,Clear,270,2013-01-17 04:53:00
11:53 PM,36.0,26.1,67,30.32,10.0,Calm,Calm,-,N/A,,Clear,0,2013-01-17 05:53:00